#datint,netname,site,siteID,timestamp,IntT,BattV,AirT2,AirT,AirT_Avg,AirT_Max,AirT_Min,RH_Avg,RH_Max,RH_Min,EA_Avg,Td_Avg,Td_Max,Td_Min,WindS_Smp,WindS_Avg,WindD_Avg,WindD_SD,WindS_Max,ETo,ETr,SoilT4,SoilT8,SoilVWC8,SolarW_Avg,wetstate_Avg,wetT_Avg,Precip_accum,Precip_WPG,Precip_TB
15min,AgWx,beryljct,423,08JUL2017:01:00:00,66.7,12.89,60.9,61.2,63.2,64.8,61.2,52,63,42,1.143,45.3,48.5,40.4,3.486,2.5,192,15,3.5,-0.00002,0.00002,79.9,69.1,.,0,0,61.6,1.68,0.00,0.00
15min,AgWx,beryljct,423,08JUL2017:01:15:00,65.5,12.89,65.1,65.1,61.9,66.6,59.2,51,69,30,0.904,42.6,49.2,33.7,3.464,3.2,185,14,4.1,0.00007,0.00015,79.4,69.1,.,0,0,61.2,1.68,0.00,0.00
15min,AgWx,beryljct,423,08JUL2017:01:30:00,64.6,12.89,63.2,63.2,64.1,66.3,63.2,47,55,31,1.090,43.1,47.3,33.9,2.192,1.7,226,25,3.3,-0.00010,-0.00011,79.0,69.1,.,0,0,63.6,1.68,0.00,0.00
15min,AgWx,beryljct,423,08JUL2017:01:45:00,63.8,12.88,57.7,57.8,61.5,66.3,57.8,61,71,37,1.062,47.7,50.6,38.2,1.71,2.8,309,37,4.9,-0.00002,0.00001,78.7,69.1,.,0,0,60.8,1.68,0.00,0.00
15min,AgWx,beryljct,423,08JUL2017:02:00:00,62.9,12.87,59.1,58.9,59.4,61.3,57.7,58,69,43,1.095,44.2,48.0,38.1,2.784,2.4,81,63,3.6,-0.00006,-0.00005,78.2,69.1,.,0,0,57.6,1.69,0.00,0.00
15min,AgWx,beryljct,423,08JUL2017:02:15:00,62.1,12.87,60.3,60.5,59.1,60.6,57.7,55,64,46,0.946,43.0,46.9,39.0,1.359,4.4,214,11,6.2,0.00013,0.00021,77.9,69.1,.,0,0,58.6,1.69,0.00,0.00
15min,AgWx,beryljct,423,08JUL2017:02:30:00,61.4,12.86,59.8,59.6,59.9,60.5,59.5,56,62,52,0.995,44.1,46.7,42.4,0.548,1.9,215,15,3.1,-0.00010,-0.00011,77.7,69.1,.,0,0,58.3,1.69,0.00,0.00
15min,AgWx,beryljct,423,08JUL2017:02:45:00,60.8,12.85,58.4,58.2,58.9,59.9,57.6,62,69,56,1.008,45.7,48.4,43.8,1.25,2.1,282,22,3.2,-0.00010,-0.00011,77.3,69.1,.,0,0,58.0,1.69,0.00,0.00
15min,AgWx,beryljct,423,08JUL2017:03:00:00,60.4,12.84,60.1,60.0,60.2,61.2,58.2,57,63,51,0.968,45.0,48.0,42.3,0,0.6,314,22,1.5,-0.00028,-0.00041,76.9,69.1,.,0,0,58.4,1.69,0.00,0.00
15min,AgWx,beryljct,423,08JUL2017:03:15:00,60.2,12.84,59.6,59.4,60.4,61.3,59.4,49,60,42,0.859,40.9,46.0,37.8,0.263,1.6,334,25,2.5,-0.00012,-0.00014,76.5,69.1,.,0,0,58.6,1.70,0.01,0.00
15min,AgWx,beryljct,423,08JUL2017:03:30:00,59.9,12.83,59.6,59.2,59.3,60.6,57.7,52,65,43,1.047,41.3,47.8,36.6,0,0.8,180,44,3.5,-0.00025,-0.00036,76.3,69.1,.,0,0,57.5,1.70,0.00,0.00
15min,AgWx,beryljct,423,08JUL2017:03:45:00,59.4,12.83,56.8,56.6,58.0,59.3,56.6,60,65,53,1.019,44.2,47.1,41.2,2.894,4.7,129,8.2,8.3,0.00011,0.00018,75.9,69.1,.,0,0,57.3,1.70,0.00,0.00
15min,AgWx,beryljct,423,08JUL2017:04:00:00,58.8,12.82,57.0,56.9,56.0,56.9,55.1,65,71,52,0.964,44.5,46.4,39.3,0,2.7,173,31,5.6,-0.00006,-0.00005,75.8,69.1,.,0,0,54.8,1.70,0.00,0.00
15min,AgWx,beryljct,423,08JUL2017:04:15:00,58.1,12.82,55.1,54.9,56.7,57.5,54.9,60,68,54,0.977,42.8,46.7,40.5,5.152,2.3,191,9.9,5.3,-0.00008,-0.00009,75.3,69.1,.,0,0,54.2,1.70,0.00,0.00
15min,AgWx,beryljct,423,08JUL2017:04:30:00,57.5,12.81,58.5,58.5,56.0,58.6,54.4,61,70,51,0.963,42.8,45.3,40.4,3.661,4.0,171,14,5.8,0.00005,0.00011,75.0,69.1,.,0,0,55.0,1.70,0.00,0.00
15min,AgWx,beryljct,423,08JUL2017:04:45:00,57.1,12.8,57.3,57.0,56.9,58.5,55.7,58,62,53,0.881,42.2,44.7,40.4,4.713,4.6,186,10,6.1,0.00012,0.00019,74.8,69.1,.,0,0,55.7,1.70,0.00,0.00
15min,AgWx,beryljct,423,08JUL2017:05:00:00,57.1,12.8,58.2,58.0,58.6,60.2,57.1,52,57,45,0.936,40.8,42.8,38.8,3.354,4.9,209,14,6.4,0.00020,0.00030,74.5,69.1,.,0,0,57.9,1.70,0.00,0.00
15min,AgWx,beryljct,423,08JUL2017:05:15:00,57.0,12.8,57.7,57.2,57.0,58.3,55.8,59,65,51,0.905,42.6,44.9,39.5,2.455,2.6,190,19,3.5,-0.00004,-0.00002,74.2,69.1,.,0,0,56.4,1.70,0.00,0.00
15min,AgWx,beryljct,423,08JUL2017:05:30:00,56.8,12.79,55.8,55.7,56.8,58.5,55.5,59,65,46,0.968,42.4,44.6,37.4,1.929,2.7,152,18,7.8,-0.00003,-0.00000,73.8,69.1,.,0,0,56.0,1.70,0.00,0.00
15min,AgWx,beryljct,423,08JUL2017:05:45:00,56.6,12.78,56.4,56.3,55.6,56.7,54.6,62,71,53,0.915,42.9,45.6,39.4,1.535,2.7,166,35,4.7,0.00028,0.00048,73.7,69.1,.,0,0,54.0,1.70,0.00,0.00
15min,AgWx,beryljct,423,08JUL2017:06:00:00,56.3,12.77,54.8,54.6,56.0,56.9,54.5,58,70,51,1.011,41.4,44.9,38.6,0.022,1.9,284,55,3.2,0.00022,0.00039,73.3,69.1,.,0,0,54.2,1.70,0.00,0.00
15min,AgWx,beryljct,423,08JUL2017:06:15:00,55.9,12.78,52.5,52.3,53.9,54.8,51.8,68,71,64,0.889,43.5,45.2,40.9,4.253,2.8,336,29,5.3,0.00024,0.00041,73.0,69.1,.,1,0,53.1,1.70,0.00,0.00
15min,AgWx,beryljct,423,08JUL2017:06:30:00,55.4,12.78,52.2,51.8,51.9,52.3,51.5,65,68,60,0.858,40.4,41.5,38.9,2.455,3.2,329,7.5,4.7,0.00031,0.00052,72.9,69.1,.,6,0,51.7,1.70,0.00,0.00
15min,AgWx,beryljct,423,08JUL2017:06:45:00,55.2,12.79,52.4,52.0,52.5,53.9,51.6,64,73,58,0.931,40.9,43.4,38.9,5.152,2.6,0.4,60,6.4,0.00034,0.00053,72.5,69.1,.,20,0,53.6,1.70,0.00,0.00
15min,AgWx,beryljct,423,08JUL2017:07:00:00,55.4,12.81,55.2,56.0,54.1,57.1,51.9,59,71,47,0.894,39.9,43.1,36.4,4.121,4.9,35,27,7.1,0.00074,0.00112,72.4,69.1,.,49,0,56.9,1.71,0.00,0.00
15min,AgWx,beryljct,423,08JUL2017:07:15:00,56.5,12.84,56.7,56.5,56.0,57.4,53.2,53,64,45,0.906,39.2,42.2,36.2,0,3.8,36,19,6.4,0.00089,0.00126,72.1,69.1,.,83,0,59.7,1.71,0.00,0.00
15min,AgWx,beryljct,423,08JUL2017:07:30:00,58.3,12.86,56.1,55.8,56.4,56.7,55.7,62,71,55,1.056,43.3,46.7,40.3,4.077,1.9,149,36,4.2,0.00083,0.00102,72.0,69.1,.,120,0,64.3,1.71,0.00,0.00
15min,AgWx,beryljct,423,08JUL2017:07:45:00,60.4,12.92,60.2,60.0,57.9,60.0,55.7,59,70,51,0.963,43.5,46.1,40.9,0.702,2.8,179,20,4.6,0.00115,0.00144,71.7,69.1,.,162,0,68.1,1.71,0.00,0.00
15min,AgWx,beryljct,423,08JUL2017:08:00:00,63.2,12.98,62.3,62.2,61.3,62.3,60.0,58,65,51,1.234,46.5,50.3,42.3,3.529,2.2,175,36,3.8,0.00137,0.00163,71.6,69.1,.,203,0,73.6,1.72,0.01,0.00
15min,AgWx,beryljct,423,08JUL2017:08:15:00,66.6,13.05,66.7,66.5,64.8,66.8,62.2,62,68,56,1.481,51.6,55.7,48.6,0.592,1.1,182,82,3.4,0.00160,0.00180,71.5,69.1,.,251,0,78.6,1.72,0.00,0.00
15min,AgWx,beryljct,423,08JUL2017:08:30:00,69.6,13.17,67.8,67.8,66.3,67.8,65.4,64,71,56,1.311,53.7,56.2,51.1,1.578,2.5,113,8.9,4.1,0.00200,0.00233,71.5,69.1,.,300,0,81.5,1.73,0.00,0.00
15min,AgWx,beryljct,423,08JUL2017:08:45:00,72.5,13.37,68.9,69.1,68.8,69.2,67.8,58,65,50,1.521,53.3,56.9,49.2,4.428,2.8,118,7.0,4.6,0.00241,0.00282,71.5,69.1,.,347,0,85.3,1.73,0.00,0.00
15min,AgWx,beryljct,423,08JUL2017:09:00:00,74.8,13.6,71.0,70.9,70.2,71.0,69.0,54,63,48,1.472,53.0,56.3,49.0,3.464,3.4,124,12,5.2,0.00282,0.00333,71.8,69.1,.,395,0,86.1,1.73,0.00,0.00
15min,AgWx,beryljct,423,08JUL2017:09:15:00,77.1,13.82,71.9,71.7,71.5,72.0,70.9,54,60,48,1.469,53.9,57.1,50.9,3.354,2.9,95,14,4.2,0.00313,0.00363,72.2,69.1,.,445,0,88.3,1.72,0.00,0.00
15min,AgWx,beryljct,423,08JUL2017:09:30:00,79.2,14.07,73.4,73.4,72.2,73.4,71.3,50,55,45,1.416,52.3,55.4,49.9,1.732,2.6,102,18,4.4,0.00347,0.00400,72.5,69.1,.,494,0,91.7,1.72,0.00,0.00
15min,AgWx,beryljct,423,08JUL2017:09:45:00,82.1,14.07,75.7,75.3,74.8,75.6,73.5,45,52,39,1.471,52.1,55.9,48.0,2.696,1.6,112,6.3,2.7,0.00381,0.00427,72.9,69.1,.,542,0,99.7,1.72,0.00,0.00
15min,AgWx,beryljct,423,08JUL2017:10:00:00,84.8,14.01,78.1,78.0,76.4,78.0,75.3,43,52,32,1.216,52.3,56.7,44.6,1.447,1.8,110,13,3.2,0.00420,0.00472,73.4,69.1,.,588,0,101.8,1.72,0.00,0.00
15min,AgWx,beryljct,423,08JUL2017:10:15:00,87.6,13.98,79.7,79.3,78.6,79.3,77.8,35,41,29,1.249,48.7,53.0,44.3,0.899,1.5,119,12,2.2,0.00455,0.00509,74.0,69.1,.,632,0,106.7,1.72,0.00,0.00
15min,AgWx,beryljct,423,08JUL2017:10:30:00,90.3,13.94,80.9,80.6,80.3,81.0,79.5,37,44,31,1.275,51.8,56.3,47.2,2.061,1.5,108,11,2.6,0.00490,0.00545,74.7,69.1,.,673,0,109.4,1.72,0.00,0.00
15min,AgWx,beryljct,423,08JUL2017:10:45:00,92.2,13.89,82.4,81.8,81.2,81.9,80.5,38,46,31,1.216,52.8,59.0,47.2,1.71,1.8,125,8.4,2.7,0.00526,0.00590,75.4,69.1,.,713,0,111.6,1.71,0.00,0.00
15min,AgWx,beryljct,423,08JUL2017:11:00:00,94.3,13.86,84.6,84.4,83.5,84.6,82.0,35,41,28,1.660,52.6,58.3,46.5,1.973,1.5,122,11,2.1,0.00558,0.00619,76.1,69.1,.,752,0,115.0,1.71,0.00,0.00
15min,AgWx,beryljct,423,08JUL2017:11:15:00,95.9,13.82,84.8,84.8,84.3,84.8,84.1,35,45,24,1.166,53.2,60.4,44.2,2.28,2.7,118,7.0,3.6,0.00606,0.00690,76.8,69.1,.,789,0,114.9,1.70,0.00,0.00
15min,AgWx,beryljct,423,08JUL2017:11:30:00,97.8,13.79,86.7,86.6,86.4,87.7,84.8,29,38,22,1.117,50.1,56.9,42.6,1.82,1.9,130,6.2,3.0,0.00629,0.00707,77.8,69.1,.,825,0,118.8,1.70,0.00,0.00
15min,AgWx,beryljct,423,08JUL2017:11:45:00,99.7,13.39,87.1,86.7,87.0,87.4,86.6,31,40,23,1.690,52.2,59.4,44.3,2.148,1.9,96,11,3.3,0.00648,0.00726,78.6,69.1,.,847,0,118.3,1.70,0.00,0.00
15min,AgWx,beryljct,423,08JUL2017:12:00:00,100.8,13.33,89.2,88.7,87.6,88.7,86.6,33,41,24,1.500,54.5,60.6,46.2,1.754,2.1,110,10,2.9,0.00681,0.00762,79.5,69.1,.,886,0,120.5,1.69,0.00,0.00
15min,AgWx,beryljct,423,08JUL2017:12:15:00,102.6,13.32,91.4,90.4,89.9,90.8,88.5,27,39,21,1.344,51.6,62.0,45.1,2.718,1.9,112,25,2.7,0.00711,0.00794,80.5,69.1,.,920,0,124.8,1.69,0.00,0.00
15min,AgWx,beryljct,423,08JUL2017:12:30:00,103.4,13.3,91.4,90.6,90.3,91.0,89.6,28,38,18,1.461,52.5,61.5,41.1,3.705,2.3,83,13,3.8,0.00730,0.00822,81.2,69.1,.,935,0,121.3,1.68,0.00,0.00
15min,AgWx,beryljct,423,08JUL2017:12:45:00,103.5,13.32,91.1,90.4,90.7,91.3,90.0,30,41,20,1.129,54.6,64.3,44.9,5.064,2.9,99,26,5.1,0.00756,0.00860,82.3,69.1,.,954,0,121.6,1.68,0.00,0.00
15min,AgWx,beryljct,423,08JUL2017:13:00:00,102.7,13.27,91.6,90.9,90.2,90.9,89.6,30,42,18,1.741,54.4,64.1,40.7,2.806,3.8,85,13,7.1,0.00782,0.00903,83.1,69.1,.,977,0,117.0,1.67,0.00,0.00
15min,AgWx,beryljct,423,08JUL2017:13:15:00,102.3,13.27,91.1,90.2,90.8,91.1,90.2,30,40,20,1.791,54.8,63.1,43.6,4.297,4.3,79,9.6,6.6,0.00787,0.00916,84.1,69.1,.,971,0,117.1,1.66,0.00,0.00
15min,AgWx,beryljct,423,08JUL2017:13:30:00,102.0,13.27,90.5,90.5,90.6,90.9,90.2,33,41,26,1.696,57.8,63.7,50.9,6.072,4.7,97,29,8.4,0.00817,0.00951,85.0,69.1,.,1009,0,116.7,1.65,0.00,0.00
15min,AgWx,beryljct,423,08JUL2017:13:45:00,101.2,13.28,88.7,88.7,88.9,90.3,88.1,33,39,21,1.706,56.0,60.7,44.7,5.941,7.8,131,16,10.5,0.00865,0.01048,85.8,69.1,.,1037,0,111.4,1.65,0.00,0.00
15min,AgWx,beryljct,423,08JUL2017:14:00:00,99.8,13.3,86.0,86.0,88.4,90.5,85.9,30,42,18,1.377,52.5,62.8,41.2,8.92,8.9,147,18,15.4,0.00697,0.00890,86.6,69.1,.,753,0,105.8,1.64,0.00,0.00
15min,AgWx,beryljct,423,08JUL2017:14:15:00,98.3,13.3,88.7,88.2,86.9,89.0,85.6,34,42,24,1.621,55.1,62.7,47.5,7.673,7.9,141,10,11.8,0.00720,0.00891,87.1,69.1,.,849,0,105.5,1.64,0.00,0.00
15min,AgWx,beryljct,423,08JUL2017:14:30:00,97.8,13.32,88.1,87.8,88.2,88.9,87.5,32,38,26,1.281,54.5,59.6,48.8,10.87,9.7,139,11,13.4,0.00789,0.00994,87.7,69.1,.,909,0,107.5,1.64,0.00,0.00
15min,AgWx,beryljct,423,08JUL2017:14:45:00,97.8,13.3,89.0,88.9,88.6,90.0,87.2,31,41,19,1.541,53.7,61.3,41.0,10.26,8.9,141,12,13.8,0.00811,0.01010,88.3,69.1,.,947,0,108.8,1.64,0.00,0.00
15min,AgWx,beryljct,423,08JUL2017:15:00:00,96.9,13.3,86.1,85.6,87.1,89.5,85.0,31,40,19,1.639,52.1,58.8,40.6,5.371,8.4,133,12,13.6,0.00506,0.00679,88.6,69.1,.,469,0,98.7,1.64,0.00,0.00
15min,AgWx,beryljct,423,08JUL2017:15:15:00,97.7,13.29,92.2,91.4,89.7,91.6,85.8,32,44,19,1.448,55.9,63.0,42.1,3.42,5.3,118,13,9.3,0.00786,0.00929,88.9,69.1,.,963,0,113.4,1.64,0.00,0.00
15min,AgWx,beryljct,423,08JUL2017:15:30:00,98.9,13.28,88.5,87.9,90.0,91.7,87.3,29,37,19,1.202,53.5,61.7,42.7,9.32,6.9,139,17,12.8,0.00571,0.00728,89.2,69.1,.,602,0,106.9,1.64,0.00,0.00
15min,AgWx,beryljct,423,08JUL2017:15:45:00,96.9,13.3,84.7,84.6,85.7,88.3,83.9,30,36,21,1.301,50.5,55.4,40.9,6.949,7.7,124,15,11.0,0.00383,0.00537,89.3,69.1,.,298,0,93.5,1.64,0.00,0.00
15min,AgWx,beryljct,423,08JUL2017:16:00:00,94.4,13.37,81.8,81.6,83.3,84.7,81.6,33,37,28,1.196,51.0,54.6,47.0,9.47,9.2,123,12,15.6,0.00378,0.00541,89.6,69.1,.,279,0,90.0,1.64,0.00,0.00
15min,AgWx,beryljct,423,08JUL2017:16:15:00,92.3,13.42,82.5,82.6,82.5,83.3,81.6,33,45,30,1.639,50.9,59.4,47.5,4.604,5.9,118,32,11.3,0.00318,0.00433,89.5,69.1,.,276,0,90.0,1.64,0.00,0.00
15min,AgWx,beryljct,423,08JUL2017:16:30:00,91.2,13.42,81.9,81.4,83.2,86.7,80.9,35,47,24,1.280,52.7,60.3,45.0,4.954,4.9,307,22,8.9,0.00277,0.00371,89.2,69.1,.,244,0,90.3,1.65,0.01,0.00
15min,AgWx,beryljct,423,08JUL2017:16:45:00,89.9,13.45,81.3,81.0,81.7,82.7,80.9,34,41,30,1.182,50.8,55.5,47.3,9.19,8.0,300,13,12.9,0.00318,0.00457,89.0,69.1,.,235,0,87.6,1.65,0.00,0.00
15min,AgWx,beryljct,423,08JUL2017:17:00:00,88.7,13.48,82.0,82.2,81.8,83.0,80.7,33,37,29,1.340,49.7,53.6,46.3,5.744,7.1,290,9.6,11.7,0.00305,0.00435,88.6,69.1,.,237,0,87.8,1.65,0.00,0.00
15min,AgWx,beryljct,423,08JUL2017:17:15:00,88.0,13.48,83.9,83.7,82.6,83.7,81.9,32,36,27,1.224,49.3,52.1,45.7,5.897,7.1,310,7.7,9.4,0.00312,0.00445,88.4,69.1,.,251,0,88.4,1.65,0.01,0.00
15min,AgWx,beryljct,423,08JUL2017:17:30:00,87.9,13.49,84.5,84.5,83.5,84.5,82.5,33,37,28,1.426,51.7,55.1,47.6,3.683,5.6,317,8.4,7.9,0.00293,0.00402,88.0,69.1,.,281,0,90.5,1.66,0.00,0.00
15min,AgWx,beryljct,423,08JUL2017:17:45:00,89.6,13.45,88.8,88.8,86.2,88.8,84.4,36,43,30,1.529,56.0,60.1,51.0,4.779,3.7,328,9.8,5.3,0.00406,0.00493,87.8,69.1,.,525,0,99.7,1.66,0.01,0.00
15min,AgWx,beryljct,423,08JUL2017:18:00:00,93.6,13.4,91.6,92.6,91.1,92.8,89.0,26,34,19,1.268,51.6,58.3,43.1,6.862,4.2,337,13,7.1,0.00558,0.00675,87.5,69.1,.,681,0,110.2,1.67,0.01,0.00
15min,AgWx,beryljct,423,08JUL2017:18:15:00,96.9,13.3,92.6,90.5,92.5,94.1,90.4,22,39,13,1.913,47.1,62.3,34.8,4.275,3.9,11,56,7.4,0.00485,0.00599,87.6,69.1,.,586,0,110.5,1.67,0.00,0.00
15min,AgWx,beryljct,423,08JUL2017:18:30:00,99.3,13.27,92.6,91.2,92.9,94.5,90.1,17,37,13,0.728,41.5,61.0,35.1,8.88,6.0,24,22,9.4,0.00529,0.00691,87.7,69.1,.,583,0,109.6,1.67,0.00,0.00
15min,AgWx,beryljct,423,08JUL2017:18:45:00,99.6,13.26,86.6,85.8,89.7,94.0,85.8,24,33,13,1.221,47.0,56.6,34.8,8.15,7.6,58,20,13.8,0.00437,0.00610,88.1,69.1,.,430,0,102.1,1.67,0.00,0.00
15min,AgWx,beryljct,423,08JUL2017:19:00:00,96.4,13.27,83.5,83.3,84.0,85.6,82.6,28,32,22,1.104,47.2,50.1,41.9,7.19,8.3,70,11,17.3,0.00220,0.00373,88.2,69.1,.,120,0,87.2,1.66,0.00,0.00
15min,AgWx,beryljct,423,08JUL2017:19:15:00,93.1,13.29,83.5,83.2,83.6,84.8,82.8,28,31,25,1.110,47.4,49.3,44.4,5.349,6.4,68,7.7,10.0,0.00146,0.00265,88.2,69.1,.,101,0,85.9,1.66,0.00,0.00
15min,AgWx,beryljct,423,08JUL2017:19:30:00,90.8,13.3,82.2,82.0,83.0,84.6,81.9,31,34,25,1.250,49.2,51.7,44.8,4.143,5.1,74,9.8,7.4,0.00117,0.00209,87.9,69.1,.,107,0,85.5,1.65,0.00,0.00
15min,AgWx,beryljct,423,08JUL2017:19:45:00,88.5,13.27,81.1,80.8,81.0,83.5,79.0,35,42,26,1.335,50.8,53.9,44.5,4.253,4.6,124,25,8.9,0.00100,0.00179,87.7,69.1,.,105,0,83.6,1.65,0.00,0.00
15min,AgWx,beryljct,423,08JUL2017:20:00:00,86.8,13.22,77.6,77.5,79.7,80.8,77.5,41,52,35,1.638,54.0,58.7,50.3,4.297,3.0,162,17,4.9,0.00057,0.00105,87.3,69.1,.,96,0,82.2,1.66,0.00,0.00
15min,AgWx,beryljct,423,08JUL2017:20:15:00,85.3,13.15,83.1,83.0,80.0,84.3,76.0,37,54,24,1.055,50.5,58.1,43.1,14.45,8.8,167,11,17.6,0.00110,0.00149,87.1,69.1,.,74,0,81.9,1.66,0.00,0.00
15min,AgWx,beryljct,423,08JUL2017:20:30:00,84.5,13.1,79.1,78.8,81.3,83.0,78.8,30,35,27,1.103,46.7,49.3,45.0,8.88,11.4,163,8.6,17.3,0.00141,0.00185,86.7,69.1,.,48,0,81.4,1.66,0.00,0.00
15min,AgWx,beryljct,423,08JUL2017:20:45:00,83.4,13.07,80.3,80.1,80.0,80.8,78.9,31,34,29,1.105,47.1,48.5,45.0,6.489,5.8,179,19,9.5,0.00074,0.00108,86.3,69.1,.,28,0,79.2,1.66,0.00,0.00
15min,AgWx,beryljct,423,08JUL2017:21:00:00,82.3,13.03,80.9,80.7,79.6,81.1,78.1,32,36,28,1.043,46.8,49.4,44.2,4.143,5.4,186,14,7.6,0.00063,0.00094,86.0,69.1,.,10,0,78.4,1.66,0.00,0.00
15min,AgWx,beryljct,423,08JUL2017:21:15:00,81.5,13.02,82.0,81.7,80.2,81.7,77.9,30,38,27,0.981,45.8,50.8,43.3,11.93,7.0,183,11,12.7,0.00082,0.00118,85.6,69.1,.,1,0,78.7,1.67,0.00,0.00
15min,AgWx,beryljct,423,08JUL2017:21:30:00,81.3,13.01,80.5,80.2,81.3,81.9,80.2,28,30,26,1.070,45.0,46.7,43.8,7.278,9.6,196,8.4,13.0,0.00117,0.00159,85.1,69.1,.,0,0,80.0,1.67,0.00,0.00
15min,AgWx,beryljct,423,08JUL2017:21:45:00,80.8,13,78.7,78.7,79.0,80.4,77.6,32,36,29,1.112,46.6,48.7,44.9,6.62,7.8,207,8.9,10.2,0.00088,0.00123,84.7,69.1,.,0,0,78.3,1.67,0.00,0.00
15min,AgWx,beryljct,423,08JUL2017:22:00:00,80.4,13,78.6,78.2,79.3,80.4,78.2,30,32,27,1.070,45.3,46.6,43.3,7.936,8.6,209,7.2,11.3,0.00098,0.00136,84.4,69.1,.,0,0,78.3,1.67,0.00,0.00
15min,AgWx,beryljct,423,08JUL2017:22:15:00,79.7,12.97,77.1,76.9,77.6,78.6,76.5,33,36,30,1.118,46.3,47.9,44.2,7.388,7.7,214,8.1,10.3,0.00083,0.00116,84.1,69.1,.,0,0,76.7,1.67,0.00,0.00
15min,AgWx,beryljct,423,08JUL2017:22:30:00,79.0,12.98,78.5,78.3,77.1,78.5,75.6,34,38,31,1.061,46.9,48.6,44.9,9.43,8.1,224,9.4,10.9,0.00084,0.00116,83.7,69.1,.,0,0,76.5,1.67,0.00,0.00
15min,AgWx,beryljct,423,08JUL2017:22:45:00,78.6,12.97,77.3,77.0,77.7,78.7,76.3,33,36,31,1.057,46.1,47.6,44.8,6.971,8.9,219,9.4,13.0,0.00095,0.00130,83.4,69.1,.,0,0,76.8,1.67,0.00,0.00
15min,AgWx,beryljct,423,08JUL2017:23:00:00,78.0,12.97,77.0,76.9,76.9,77.6,76.2,33,35,32,1.028,45.8,47.0,44.7,6.599,7.0,212,9.0,10.8,0.00074,0.00105,83.0,69.1,.,0,0,75.3,1.67,0.00,0.00
15min,AgWx,beryljct,423,08JUL2017:23:15:00,77.6,12.96,76.7,76.5,77.1,77.8,76.5,32,35,31,1.080,45.4,47.0,43.8,5.7,6.9,212,10,8.8,0.00074,0.00106,82.7,69.1,.,0,0,75.8,1.67,0.00,0.00
15min,AgWx,beryljct,423,08JUL2017:23:30:00,77.5,12.96,78.3,78.0,77.2,78.0,76.2,33,36,31,1.006,45.8,47.2,44.0,10,8.0,218,9.2,10.6,0.00085,0.00117,82.3,69.1,.,0,0,76.2,1.68,0.00,0.00
15min,AgWx,beryljct,423,08JUL2017:23:45:00,77.4,12.95,77.0,76.6,77.3,78.4,75.9,33,38,30,1.126,46.3,48.6,43.9,5.174,7.7,243,18,12.6,0.00082,0.00115,82.2,69.1,.,0,0,76.8,1.68,0.00,0.00
15min,AgWx,beryljct,423,09JUL2017:00:00:00,77.1,12.95,76.1,76.0,76.6,77.4,76.0,34,37,31,1.095,46.4,48.4,43.9,6.182,6.4,266,14,10.7,0.00066,0.00095,81.8,69.1,.,0,0,76.0,1.68,0.00,0.00
15min,AgWx,beryljct,423,09JUL2017:00:15:00,76.6,12.94,76.1,75.9,75.6,76.1,75.0,36,39,34,1.111,46.7,48.5,45.2,3.902,5.5,265,8.8,7.1,0.00052,0.00078,81.5,69.1,.,0,0,74.8,1.68,0.00,0.00
15min,AgWx,beryljct,423,09JUL2017:00:30:00,75.9,12.93,74.4,74.2,74.9,75.9,73.6,38,41,34,1.098,47.4,49.1,45.1,5.7,4.8,241,8.6,7.2,0.00041,0.00063,81.2,69.1,.,0,0,73.8,1.68,0.00,0.00
15min,AgWx,beryljct,423,09JUL2017:00:45:00,75.4,12.91,75.2,75.2,75.7,76.5,74.3,36,40,34,1.188,46.7,49.2,45.7,1.82,4.9,208,17,8.2,0.00045,0.00069,80.9,69.1,.,0,0,73.8,1.68,0.00,0.00
15min,AgWx,blo,425,08JUL2017:01:00:00,68.0,12.4,65.6,66.2,70.6,72.6,66.1,40,56,34,1.169,44.8,50.0,42.1,5.809,4.9,37,88,13.5,0.00035,0.00053,74.8,72.4,11,0,.,.,26.14,0.00,0.00
15min,AgWx,blo,425,08JUL2017:01:15:00,67.0,12.4,64.6,65.4,65.3,66.2,64.5,55,57,52,1.136,48.5,49.4,47.9,6.029,6.3,223,18,8.4,0.00029,0.00042,74.7,72.3,11,0,.,.,26.14,0.00,0.00
15min,AgWx,blo,425,08JUL2017:01:30:00,65.8,12.39,64.9,65.6,65.1,66.1,64.1,53,56,49,1.069,47.4,48.4,46.3,5.568,4.8,231,11,6.6,0.00020,0.00031,74.6,72.2,11,0,.,.,26.14,0.00,0.00
15min,AgWx,blo,425,08JUL2017:01:45:00,64.8,12.39,62.6,63.3,64.0,65.6,63.1,51,52,50,1.025,45.7,46.4,45.2,4.538,5.3,229,8.7,7.5,0.00024,0.00036,74.5,72.1,11,0,.,.,26.14,0.00,0.00
15min,AgWx,blo,425,08JUL2017:02:00:00,63.9,12.38,62.7,63.4,63.5,63.9,63.2,50,52,49,0.979,44.7,45.3,44.0,5.349,5.4,223,10,6.9,0.00025,0.00037,74.4,72.1,11,0,.,.,26.14,0.00,0.00
15min,AgWx,blo,425,08JUL2017:02:15:00,63.1,12.38,62.5,63.3,63.4,64.1,62.9,48,49,46,0.946,43.4,44.1,42.9,5.02,4.9,221,10,6.5,0.00023,0.00035,74.3,72.0,11,0,.,.,26.14,0.00,0.00
15min,AgWx,blo,425,08JUL2017:02:30:00,62.5,12.37,65.6,66.6,65.5,66.6,63.3,43,47,41,0.903,42.2,43.1,41.8,3.464,4.2,231,6.0,5.2,0.00022,0.00035,74.3,71.9,11,0,.,.,26.14,0.00,0.00
15min,AgWx,blo,425,08JUL2017:02:45:00,62.3,12.37,64.8,65.8,65.6,66.6,64.6,42,43,41,0.893,41.9,42.1,41.6,4.209,4.1,232,8.1,5.1,0.00021,0.00034,74.2,71.8,11,0,.,.,26.14,0.00,0.00
15min,AgWx,blo,425,08JUL2017:03:00:00,62.0,12.36,62.6,63.2,65.0,66.9,63.2,43,46,40,0.912,41.8,42.3,41.3,5.809,4.8,230,9.5,7.0,0.00027,0.00041,74.0,71.8,11,0,.,.,26.14,0.00,0.00
15min,AgWx,blo,425,08JUL2017:03:15:00,61.7,12.35,60.2,60.8,62.2,63.8,60.2,48,52,45,0.930,42.4,42.9,42.0,4.121,5.1,227,10,7.4,0.00024,0.00036,73.9,71.7,11,0,.,.,26.14,0.00,0.00
15min,AgWx,blo,425,08JUL2017:03:30:00,61.0,12.35,60.4,61.1,61.2,61.6,60.8,50,51,50,0.928,42.6,42.8,42.4,6.007,5.4,224,9.2,6.8,0.00023,0.00035,73.8,71.6,11,0,.,.,26.14,0.00,0.00
15min,AgWx,blo,425,08JUL2017:03:45:00,60.4,12.33,59.9,60.5,60.7,61.1,60.4,51,52,51,0.926,42.7,42.9,42.4,6.686,6.4,223,9.2,9.3,0.00029,0.00041,73.7,71.5,11,0,.,.,26.14,0.00,0.00
15min,AgWx,blo,425,08JUL2017:04:00:00,60.0,12.33,60.2,61.0,60.6,61.0,60.2,51,52,50,0.921,42.6,42.7,42.4,7.826,6.8,223,8.6,8.4,0.00031,0.00043,73.6,71.4,11,0,.,.,26.14,0.00,0.00
15min,AgWx,blo,425,08JUL2017:04:15:00,59.7,12.32,60.0,60.7,60.9,61.3,60.5,51,51,50,0.926,42.4,42.6,42.3,5.546,6.8,224,8.8,8.3,0.00032,0.00045,73.5,71.3,11,0,.,.,26.14,0.00,0.00
15min,AgWx,blo,425,08JUL2017:04:30:00,59.3,12.32,60.1,61.0,60.6,61.0,60.1,51,52,50,0.921,42.4,42.6,42.2,5.349,5.8,222,7.7,6.9,0.00025,0.00037,73.4,71.2,11,0,.,.,26.14,0.00,0.00
15min,AgWx,blo,425,08JUL2017:04:45:00,59.1,12.32,60.1,60.7,60.8,61.1,60.6,51,51,50,0.914,42.4,42.5,42.2,5.634,6.0,225,8.4,7.5,0.00027,0.00039,73.3,71.1,11,0,.,.,26.14,0.00,0.00
15min,AgWx,blo,425,08JUL2017:05:00:00,58.9,12.28,60.4,61.0,61.0,61.2,60.7,50,51,50,0.912,42.2,42.4,42.1,4.779,5.7,228,8.0,6.9,0.00026,0.00037,73.1,71.0,11,0,.,.,26.14,0.00,0.00
15min,AgWx,blo,425,08JUL2017:05:15:00,58.8,12.3,60.5,61.4,61.3,62.3,60.7,49,50,47,0.909,42.1,42.3,41.9,5.437,5.3,224,8.4,6.7,0.00024,0.00036,73.0,71.0,11,0,.,.,26.14,0.00,0.00
15min,AgWx,blo,425,08JUL2017:05:30:00,58.7,12.3,60.2,60.9,61.3,61.7,60.9,49,50,48,0.908,42.1,42.3,42.0,4.582,4.5,225,8.7,6.1,0.00017,0.00027,73.0,70.8,11,0,.,.,26.14,0.00,0.00
15min,AgWx,blo,425,08JUL2017:05:45:00,58.5,12.29,59.2,59.8,60.6,61.0,59.8,51,52,50,0.915,42.1,42.3,41.9,5.02,4.9,224,8.9,6.9,0.00019,0.00030,72.8,70.7,11,1,.,.,26.14,0.00,0.00
15min,AgWx,blo,425,08JUL2017:06:00:00,58.2,12.28,58.9,59.8,59.4,59.9,59.0,53,54,52,0.914,42.3,42.4,42.1,4.253,5.1,223,7.2,6.0,0.00019,0.00029,72.7,70.7,11,3,.,.,26.14,0.00,0.00
15min,AgWx,blo,425,08JUL2017:06:15:00,58.0,12.27,60.3,61.0,60.1,61.0,59.8,51,52,50,0.910,42.2,42.4,41.8,3.179,3.9,226,8.7,5.2,-0.00004,0.00030,72.6,70.6,11,17,.,.,26.14,0.00,0.00
15min,AgWx,blo,425,08JUL2017:06:30:00,58.3,12.28,63.8,63.3,62.6,64.1,61.0,47,50,44,0.909,41.9,42.2,41.5,2.784,3.7,232,10,5.8,0.00014,0.00052,72.5,70.5,11,46,.,.,26.14,0.00,0.00
15min,AgWx,blo,425,08JUL2017:06:45:00,59.5,12.28,63.4,62.4,63.0,63.6,62.4,47,50,45,0.959,42.7,43.8,41.7,4.209,3.3,214,10,4.7,0.00030,0.00066,72.4,70.5,11,78,.,.,26.14,0.00,0.00
15min,AgWx,blo,425,08JUL2017:07:00:00,60.9,12.28,64.5,62.6,62.0,62.6,61.5,51,52,50,0.999,43.8,44.8,43.4,2.521,3.4,221,6.9,4.6,0.00047,0.00082,72.3,70.3,11,78,.,.,26.14,0.00,0.00
15min,AgWx,blo,425,08JUL2017:07:15:00,62.8,12.29,65.3,64.2,63.4,64.3,62.7,50,52,49,1.018,44.6,45.3,44.1,4.275,3.2,237,6.9,4.3,0.00076,0.00112,72.1,70.2,11,155,.,.,26.14,0.00,0.00
15min,AgWx,blo,425,08JUL2017:07:30:00,65.0,12.3,68.7,66.3,65.2,66.3,64.2,49,51,46,1.039,45.6,46.7,44.5,2.499,3.1,226,10,4.6,0.00107,0.00146,72.0,70.1,11,198,.,.,26.14,0.00,0.00
15min,AgWx,blo,425,08JUL2017:07:45:00,67.7,12.29,72.5,68.8,67.4,68.8,66.2,46,48,44,1.066,45.8,47.4,44.3,0.57,1.4,215,26,3.4,0.00119,0.00144,72.0,70.1,11,242,.,.,26.14,0.00,0.00
15min,AgWx,blo,425,08JUL2017:08:00:00,70.5,12.3,70.1,69.5,69.5,69.8,68.8,45,48,43,1.103,47.4,49.4,46.0,2.17,2.2,88,20,3.9,0.00164,0.00200,71.8,70.0,11,287,.,.,26.14,0.00,0.00
15min,AgWx,blo,425,08JUL2017:08:15:00,73.1,12.29,70.6,70.1,69.7,70.1,69.3,44,47,38,0.949,46.9,48.7,43.2,4.056,2.0,129,36,4.4,0.00194,0.00232,71.6,69.9,11,333,.,.,26.14,0.00,0.00
15min,AgWx,blo,425,08JUL2017:08:30:00,75.4,12.31,71.8,71.5,70.9,71.7,70.1,41,47,37,1.085,46.2,49.6,43.6,1.074,3.1,129,29,5.0,0.00244,0.00300,71.6,69.9,11,379,.,.,26.14,0.00,0.00
15min,AgWx,blo,425,08JUL2017:08:45:00,77.1,12.31,71.4,71.8,71.4,72.1,70.4,40,45,36,1.066,45.7,49.3,42.8,4.121,4.6,113,28,7.0,0.00296,0.00371,71.5,69.8,11,426,.,.,26.14,0.00,0.00
15min,AgWx,blo,425,08JUL2017:09:00:00,78.4,12.32,72.0,72.3,72.0,72.5,71.5,38,42,36,1.023,45.2,47.4,43.7,4.801,4.7,111,21,7.5,0.00332,0.00413,71.4,69.7,11,473,.,.,26.14,0.00,0.00